Location: Rosenheim
(47.8408°N, 12.2113°E)
Time: 22:13:10
(UTC+01:00)

N. Korean satellite - Visible Passes

Search period start: 17 November 2017 00:00
Search period end: 27 November 2017 00:00
Orbit: 460 x 515 km, 97.2° (Epoch: 17 November)

Date Brightness Start Highest point End Pass type
(mag) Time Alt. Az. Time Alt. Az. Time Alt. Az.
17 Nov 8.1 06:42:22 10° NNE 06:45:56 43° E 06:49:31 10° S visible
17 Nov 7.4 17:22:20 10° SE 17:25:19 27° ENE 17:28:22 10° N visible
17 Nov 9.1 18:56:04 10° SSW 18:58:51 22° W 19:01:41 10° NW visible
18 Nov 9.4 06:19:18 10° NE 06:22:22 24° E 06:25:26 10° SSE visible
18 Nov 8.1 16:59:50 10° ESE 17:02:03 16° ENE 17:04:17 10° NNE visible
18 Nov 7.8 18:31:56 10° S 18:35:15 41° W 18:38:39 10° NNW visible
19 Nov 10.0 05:56:46 10° ENE 05:58:43 14° E 06:00:40 10° ESE visible
19 Nov 6.5 18:08:14 10° S 18:11:44 82° WSW 18:15:19 10° NNW visible
20 Nov 6.6 17:44:53 10° SSE 17:48:17 50° ENE 17:51:46 10° N visible
20 Nov 9.9 19:20:35 10° WSW 19:22:08 12° W 19:23:43 10° WNW visible
21 Nov 8.1 06:41:59 10° NNE 06:45:34 43° E 06:49:10 10° S visible
21 Nov 7.4 17:21:53 10° SE 17:24:55 27° ENE 17:28:00 10° N visible
21 Nov 9.1 18:55:37 10° SSW 18:58:27 22° W 19:01:20 10° NW visible
22 Nov 9.4 06:18:54 10° NE 06:21:59 24° E 06:25:04 10° SSE visible
22 Nov 8.1 16:59:23 10° ESE 17:01:37 16° ENE 17:03:54 10° NNE visible
22 Nov 7.8 18:31:29 10° S 18:34:49 41° W 18:38:16 10° NNW visible
23 Nov 10.0 05:56:19 10° ENE 05:58:18 14° E 06:00:17 10° ESE visible
23 Nov 6.5 18:07:45 10° S 18:11:17 83° WSW 18:14:55 10° NNW visible
24 Nov 6.7 17:44:23 10° SSE 17:47:49 50° ENE 17:51:21 10° N visible
24 Nov 9.9 19:20:02 10° WSW 19:21:40 13° W 19:23:21 10° WNW visible
25 Nov 8.1 06:41:31 10° NNE 06:45:08 43° E 06:48:44 10° S visible
25 Nov 7.5 17:21:23 10° SE 17:24:26 27° ENE 17:27:34 10° N visible
25 Nov 9.1 18:55:05 10° SSW 18:57:58 23° W 19:00:53 10° NW visible
26 Nov 9.3 06:18:25 10° NE 06:21:31 24° E 06:24:36 10° SSE visible
26 Nov 8.1 16:58:50 10° ESE 17:01:08 16° ENE 17:03:27 10° NNE visible
26 Nov 7.8 18:30:56 10° S 18:34:19 42° W 18:37:48 10° NNW visible
